WI5KEY Weather Reports


time (UTC)temp
C
wind
direction
speed
KPH
gust
KPH
rain 1hr
cm
rain 24hr
cm
rain mn
cm
humidity
%
barometer
mb
20260509051559 23 155 6.4 16.1 0.00 0.00 0.00 91 1011.0
20260509050105 23 130 11.3 14.5 0.00 0.00 0.00 91 1010.5
20260509044552 23 142 8.0 14.5 0.00 0.00 0.00 91 1010.6
20260509043058 23 131 6.4 12.9 0.00 0.00 0.00 91 1010.5
20260509041552 23 121 4.8 11.3 0.00 0.00 0.00 90 1010.2
20260509040051 23 119 3.2 11.3 0.00 0.00 0.00 90 1010.1
20260509034553 23 111 1.6 11.3 0.00 0.00 0.00 90 1009.9
20260509033053 23 88 1.6 9.7 0.00 0.00 0.00 90 1009.9
20260509031548 23 101 0.0 6.4 0.00 0.00 0.00 90 1009.9
20260509030047 23 94 0.0 4.8 0.00 0.00 0.00 89 1009.8
20260509024546 23 115 1.6 9.7 0.00 0.00 0.00 89 1009.4
20260509023046 23 119 1.6 6.4 0.00 0.00 0.00 88 1009.2
20260509021547 23 121 3.2 9.7 0.00 0.00 0.00 88 1009.1
20260509020045 23 124 3.2 9.7 0.00 0.00 0.00 87 1008.9
20260509014543 24 119 3.2 6.4 0.00 0.00 0.00 87 1008.9
20260509013052 24 126 6.4 12.9 0.00 0.00 0.00 86 1008.7
20260509011542 24 124 1.6 9.7 0.00 0.00 0.00 85 1008.5
20260509010041 24 118 3.2 9.7 0.00 0.00 0.00 84 1008.3
20260509004541 25 90 3.2 9.7 0.00 0.00 0.00 84 1008.4
20260509003038 25 90 1.6 9.7 0.00 0.00 0.00 83 1008.4
20260509001548 25 117 1.6 9.7 0.00 0.00 0.00 83 1008.6
20260509000038 25 122 4.8 12.9 0.00 0.00 0.00 83 1008.4
20260508234536 25 80 1.6 12.9 0.00 0.00 0.00 82 1008.4
20260508233035 25 84 1.6 9.7 0.00 0.00 0.00 82 1008.5
20260508231635 25 96 3.2 14.5 0.00 0.00 0.00 82 1008.3
20260508230035 25 69 6.4 14.5 0.00 0.00 0.00 82 1008.5
20260508224541 25 102 1.6 9.7 0.00 0.00 0.00 83 1008.8
20260508223042 25 97 3.2 9.7 0.00 0.00 0.00 82 1008.8
20260508221528 25 94 3.2 9.7 0.00 0.00 0.00 82 1009.0
20260508220030 25 59 4.8 12.9 0.00 0.00 0.00 82 1009.0
20260508214547 25 49 3.2 11.3 0.00 0.00 0.00 82 1009.2
20260508213024 25 56 3.2 11.3 0.00 0.00 0.00 82 1009.3
20260508211522 25 84 0.0 12.9 0.00 0.00 0.00 81 1009.5
20260508210021 25 84 4.8 12.9 0.00 0.00 0.00 82 1009.7
20260508204519 25 135 8.0 14.5 0.00 0.00 0.00 83 1009.9
20260508203020 25 124 6.4 14.5 0.00 0.00 0.00 80 1010.0
20260508201516 25 136 9.7 16.1 0.00 0.00 0.00 80 1010.1
20260508200019 25 144 9.7 17.7 0.00 0.00 0.00 79 1010.3
20260508194516 25 123 8.0 19.3 0.00 0.00 0.00 79 1010.4
20260508193010 24 122 8.0 17.7 0.00 0.00 0.00 77 1010.6
20260508191507 24 121 3.2 17.7 0.00 0.00 0.00 78 1010.8
20260508190009 23 132 3.2 9.7 0.00 0.00 0.00 78 1011.0
20260508184604 22 32 3.2 9.7 0.00 0.00 0.00 80 1011.3
20260508183113 22 32 1.6 8.0 0.00 0.00 0.00 80 1011.5
20260508181654 22 82 1.6 12.9 0.00 0.00 0.00 79 1011.8
20260508174604 22 40 3.2 12.9 0.00 0.00 0.00 79 1012.1
20260508173047 21 35 4.8 8.0 0.00 0.00 0.00 79 1012.1
20260508171545 21 49 1.6 6.4 0.00 0.00 0.00 79 1012.3
20260508170046 21 78 1.6 9.7 0.00 0.00 0.00 80 1012.5
20260508164546 20 102 3.2 11.3 0.00 0.00 0.00 81 1012.5
20260508163037 20 35 4.8 9.7 0.00 0.00 0.00 81 1012.6
20260508161534 20 58 4.8 12.9 0.00 0.00 0.00 81 1012.6
20260508160034 19 25 4.8 14.5 0.00 0.00 0.00 82 1012.9
20260508154530 19 50 4.8 12.9 0.00 0.00 0.00 82 1013.3
20260508153034 19 29 4.8 14.5 0.00 0.00 0.00 82 1013.5
20260508151527 18 38 4.8 16.1 0.00 0.00 0.00 83 1013.4
20260508150029 18 29 8.0 17.7 0.00 0.00 0.00 83 1013.5
20260508144528 18 9 4.8 16.1 0.00 0.00 0.00 83 1013.8
20260508143023 18 40 3.2 17.7 0.00 0.00 0.00 82 1013.7
20260508141521 18 51 4.8 16.1 0.00 0.00 0.00 83 1013.9
20260508140023 18 5 9.7 17.7 0.00 0.00 0.00 82 1013.6
20260508134516 17 33 4.8 14.5 0.00 0.00 0.00 83 1013.7
20260508133016 17 26 1.6 8.0 0.00 0.00 0.00 84 1013.6
20260508131514 17 13 3.2 9.7 0.00 0.00 0.00 84 1013.6
20260508130029 17 20 3.2 9.7 0.00 0.00 0.00 85 1013.5
20260508124513 17 13 1.6 8.0 0.00 0.00 0.00 84 1013.7
20260508123016 17 57 4.8 12.9 0.00 0.00 0.00 84 1013.7
20260508121513 17 28 3.2 9.7 0.00 0.00 0.00 84 1013.6
20260508120012 17 23 1.6 14.5 0.00 0.00 0.00 85 1013.6
20260508114510 17 32 4.8 12.9 0.00 0.00 0.00 84 1013.2
20260508113009 17 37 8.0 14.5 0.00 0.00 0.00 83 1013.6
20260508111507 17 30 3.2 9.7 0.00 0.00 0.00 82 1014.3
20260508110005 17 335 1.6 9.7 0.00 0.00 0.00 81 1014.3
20260508104504 17 5 1.6 6.4 0.00 0.00 0.00 81 1013.4
20260508103005 17 87 3.2 14.5 0.00 0.00 0.00 79 1013.4
20260508101502 17 93 6.4 17.7 0.00 0.00 0.00 79 1012.9
20260508100000 17 79 4.8 16.1 0.00 0.00 0.00 78 1013.0
20260508094600 17 51 6.4 16.1 0.00 0.00 0.00 77 1013.9
20260508093105 17 20 11.3 17.7 0.00 0.00 0.00 77 1013.9
20260508091557 17 11 1.6 9.7 0.00 0.00 0.00 78 1014.2
20260508090106 17 9 0.0 12.9 0.00 0.00 0.00 78 1014.5
20260508084558 17 28 6.4 11.3 0.00 0.00 0.00 78 1013.5
20260508083055 17 5 4.8 14.5 0.00 0.00 0.00 77 1013.5
20260508081558 17 5 4.8 14.5 0.00 0.00 0.00 78 1013.8
20260508080053 17 333 1.6 6.4 0.00 0.00 0.00 78 1014.2
20260508074552 17 319 3.2 8.0 0.00 0.00 0.00 78 1014.6
20260508073152 17 349 3.2 14.5 0.00 0.00 0.00 77 1014.5
20260508071550 17 19 1.6 8.0 0.00 0.00 0.00 78 1014.5
20260508070051 17 45 4.8 12.9 0.00 0.00 0.00 77 1014.4
20260508064648 17 26 1.6 12.9 0.00 0.00 0.00 77 1014.8
20260508063058 17 64 4.8 20.9 0.00 0.00 0.00 77 1013.6
20260508061547 17 15 8.0 17.7 0.00 0.00 0.00 77 1014.4
20260508060045 17 28 4.8 9.7 0.00 0.00 0.00 77 1015.1
20260508054541 17 328 1.6 4.8 0.00 0.00 0.00 78 1015.9
20260508053042 17 329 1.6 14.5 0.00 0.00 0.00 77 1015.7